sat.trackr.live / text

‹ back to catalog

STARLINK-32551

NORAD 62166 · 2024-225D

PAYLOAD ACTIVE UNKNOWN

§ Identity

Operator
Country
US
Launch date
2024-11-30
Launch site
AFWTR
Launch vehicle
Mass (kg)
RCS (m²)

Purposes: comms

External: N2YO · Heavens-Above · Gunter

§ Orbital elements

Epoch: 2026-09-21T19:24:57.151584Z

Period
96.02 min
Inclination
70.0009°
Eccentricity
0.0003721
Mean motion
14.99614723 rev/d
Perigee alt
565.5 km
Apogee alt
570.7 km
Semi-major
6,946.2 km
B*
2.1348e-2
RAAN
29.8975°
Arg perigee
277.5550°
Mean anomaly
82.5187°
Rev number
9,925

§ Raw data

STARLINK-325511 62166U 24225D   26264.80899481  .00273790  00000+0  21348-1 0  99992 62166  70.0009  29.8975 0003721 277.5550  82.5187 14.99614723 99255

JSON: /api/v1/satellites/62166 · /tle

For live sub-satellite position, see the globe view (requires WebGL).

§ Visibility from observer

Set your observer location to see the next 7 days of passes ≥ 10°. The values pass through the URL so the page stays shareable.

No JS? Fill the form by hand. The geolocation button needs JavaScript.